Regional Weather Roundup
Issued by NWS

Home | Current Version | Previous Version | Graphics & Text | Print | Product List | Glossary On
Versions: 1 2 3 4 5 6 7 8 9 10 11 12 13 14 15 16 17 18 19 20 21 22 23 24 25 26 27 28 29 30 31 32 33 34 35 36 37 38 39 40 41 42 43 44 45 46 47
000
ASUS45 KPSR 251710
RWRAZ

ARIZONA REGIONAL HOURLY WEATHER ROUNDUP
NATIONAL WEATHER SERVICE TUCSON AZ
1000 AM MST SUN JUN 25 2017

NOTE: FAIR INDICATES FEW OR NO CLOUDS BELOW 12,000 FEET WITH NO
SIGNIFICANT WEATHER AND/OR OBSTRUCTIONS TO VISIBILITY.

AZZ001>003-036-251800-
NORTHWEST ARIZONA

CITY           SKY/WX    TMP DP  RH WIND       PRES   REMARKS
BULLHEAD CITY  SUNNY    106  36   9 SW5       29.78S
KINGMAN        SUNNY    101  41  12 E21       30.02S
$$

AZZ004>008-015-016-018-251800-
NORTH CENTRAL ARIZONA

CITY           SKY/WX    TMP DP  RH WIND       PRES   REMARKS
GRAND CANYON   MOSUNNY   84  31  14 VRB6      30.33S
PRESCOTT       SUNNY     92  41  17 SE17G25   30.18F
FLAGSTAFF      MOSUNNY   81  34  18 S8        30.35S
PAYSON         MOSUNNY   84  50  30 SW8       30.26S
PAGE           MOSUNNY   88  24  10 E6        30.13F
$$

AZZ009>014-017-251800-
NORTHEAST ARIZONA

CITY           SKY/WX    TMP DP  RH WIND       PRES   REMARKS
WINSLOW        CLOUDY    92  35  13 SW12      30.18R
SAINT JOHNS    PTSUNNY   87  44  22 VRB7      30.25R
WINDOW ROCK    SUNNY     83  39  21 SW18G26   30.33F
SHOW LOW       CLOUDY    75  46  35 S16       30.34F
$$

AZZ023-251800-
GREATER PHOENIX AREA

CITY           SKY/WX    TMP DP  RH WIND       PRES   REMARKS
PHOENIX        PTSUNNY  104  54  19 S14       29.86S HX 102
BUCKEYE        SUNNY    100  41  13 SE6       29.87S
GLENDALE       MOSUNNY  104  55  20 E7        29.88S HX 103
LUKE AFB       SUNNY    103  52  18 SE8       29.86S HX 101
DEER VALLEY    SUNNY    102  53  19 SE15      29.89S HX 100
SCOTTSDALE     SUNNY    103  52  18 S14G21    29.91S HX 100
MESA-FALCON    MOSUNNY  104  55  20 SE13      29.90S HX 103
MESA-GATEWAY   MOSUNNY  100  55  22 SE16      29.91R
$$

AZZ027-028-251800-
SOUTHWEST MARICOPA COUNTY AND PINAL COUNTY

CITY           SKY/WX    TMP DP  RH WIND       PRES   REMARKS
CASA GRANDE    MOSUNNY  103  54  19 SE9       29.91S HX 101
$$

AZZ503-504-507>509-251800-
SOUTHEAST ARIZONA

CITY           SKY/WX    TMP DP  RH WIND       PRES   REMARKS
TUCSON         SUNNY     98  51  20 VRB6      30.03F
DAVIS-MONTHAN  MOSUNNY   98  51  20 CALM      30.02F
NOGALES        MOSUNNY   92  50  23 VRB3      30.13S
SIERRA VISTA   PTSUNNY   87  49  27 N3        30.22S
DOUGLAS        SUNNY     89  48  24 VRB3      30.16F
SAFFORD        PTSUNNY   88  52  29 E8        30.11F
$$

AZZ020-021-025-026-031-251800-
SOUTHWEST ARIZONA

CITY           SKY/WX    TMP DP  RH WIND       PRES   REMARKS
YUMA           SUNNY    101  57  23 S14       29.80R HX 100
$$

CAZ031-033-041-043-047-048-061-251800-
SOUTHERN CALIFORNIA

CITY           SKY/WX    TMP DP  RH WIND       PRES   REMARKS
DOWNTOWN L.A.  SUNNY     81  62  52 CALM      29.89F
L.A. AIRPORT   MOSUNNY   71  62  73 W9        29.90F
SAN DIEGO      MOSUNNY   74  63  68 NW8       29.88F
BURBANK        SUNNY     79  60  52 CALM      29.91S
ONTARIO        SUNNY     84  60  44 CALM      29.91F
RIVERSIDE      SUNNY     83  62  49 CALM      29.91F
PALM SPRINGS   SUNNY    100  56  23 E5        29.83F
EL CENTRO NAS  SUNNY     97  70  41 E5        29.78S HX 103
IMPERIAL       SUNNY     98  72  42 S5        29.76S HX 107
BLYTHE         SUNNY    101  57  23 SE14      29.79S HX 100
NEEDLES        SUNNY    111  29   6 CALM      29.79F HX 103
$$

NVZ020-UTZ003-251800-
SOUTHERN NEVADA-UTAH

CITY           SKY/WX    TMP DP  RH WIND       PRES   REMARKS
LAS VEGAS      MOSUNNY  102  15   4 E8        29.92S
SALT LAKE CITY SUNNY     82  39  21 NW7       30.20S
$$

NMZ009-TXZ055-251800-
NEW MEXICO-WEST TEXAS

CITY           SKY/WX    TMP DP  RH WIND       PRES   REMARKS
ALBUQUERQUE    MOSUNNY   79  51  37 SW9       30.31F
EL PASO        PTSUNNY   84  63  49 SE9       30.22F
$$


........................KEY........................
SKY/WX - SKY CONDITION/WEATHER
TMP    - TEMPERATURE IN FAHRENHEIT
DP     - DEWPOINT IN FAHRENHEIT
RH     - RELATIVE HUMIDITY IN PERCENT
WIND   - DIRECTION AND SPEED IN MILES PER HOUR (MPH)
VRB    - VARIABLE WIND DIRECTION
PRES   - MEAN SEA LEVEL PRESSURE IN INCHES OF MERCURY
         F - FALLING PRESSURE   R - RISING PRESSURE
         S - STEADY PRESSURE
VSB    - VISIBILITY IN MILES
HX     - HEAT INDEX IN FAHRENHEIT
WCI    - WIND CHILL INDEX IN FAHRENHEIT
TC     - TEMPERATURE IN CELSIUS WHICH IS ALSO KNOWN AS
         TEMPERATURE IN CENTIGRADE
AFB    - AIR FORCE BASE
         LUKE AFB IS LUKE AIR FORCE BASE
         DAVIS-MONTHAN IS DAVIS-MONTHAN AIR FORCE BASE
NAS    - NAVAL AIR STATION
         EL CENTRO NAS IS EL CENTRO NAVAL AIR STATION
N/A    - NOT AVAILABLE





USA.gov is the U.S. government's official web portal to all federal, state and local government web resources and services.